Time,TemperatureF,DewpointF,PressureIn,WindDirection,WindDirectionDegrees,WindSpeedMPH,WindSpeedGustMPH,Humidity,HourlyPrecipIn,Conditions,Clouds,dailyrainin,SoftwareType,DateUTC
2013-01-14 00:04:00,23.0,15.0,30.44,NE,51,1.0,2.0,71,0.00,,,0.00,LWC2 V0.39 B123,2013-01-14 07:04:00,
2013-01-14 00:09:00,23.0,14.7,30.44,NE,48,1.0,1.0,70,0.00,,,0.00,LWC2 V0.39 B123,2013-01-14 07:09:00,
2013-01-14 00:14:00,22.9,14.6,30.44,NE,51,0.0,2.0,70,0.00,,,0.00,LWC2 V0.39 B123,2013-01-14 07:14:00,
2013-01-14 00:19:00,22.9,14.6,30.44,NE,53,1.0,2.0,70,0.00,,,0.00,LWC2 V0.39 B123,2013-01-14 07:19:00,
2013-01-14 00:24:00,22.9,14.6,30.44,NE,49,0.0,2.0,70,0.00,,,0.00,LWC2 V0.39 B123,2013-01-14 07:24:00,
2013-01-14 00:29:00,22.8,14.5,30.44,NE,49,1.0,1.0,70,0.00,,,0.00,LWC2 V0.39 B123,2013-01-14 07:29:00,
2013-01-14 00:34:00,22.6,14.6,30.44,NE,51,0.0,2.0,71,0.00,,,0.00,LWC2 V0.39 B123,2013-01-14 07:34:00,
2013-01-14 00:39:00,22.5,14.9,30.44,NE,46,1.0,2.0,72,0.00,,,0.00,LWC2 V0.39 B123,2013-01-14 07:39:00,
2013-01-14 00:44:00,22.4,15.1,30.44,NE,53,1.0,3.0,73,0.00,,,0.00,LWC2 V0.39 B123,2013-01-14 07:44:00,
2013-01-14 00:49:00,22.3,15.0,30.44,NE,51,1.0,2.0,73,0.00,,,0.00,LWC2 V0.39 B123,2013-01-14 07:49:00,
2013-01-14 00:54:00,22.3,15.0,30.43,NE,52,2.0,4.0,73,0.00,,,0.00,LWC2 V0.39 B123,2013-01-14 07:54:00,
2013-01-14 00:59:00,22.3,14.7,30.43,NE,47,2.0,3.0,72,0.00,,,0.00,LWC2 V0.39 B123,2013-01-14 07:59:00,
2013-01-14 01:04:00,22.3,14.7,30.43,NE,49,3.0,4.0,72,0.00,,,0.00,LWC2 V0.39 B123,2013-01-14 08:04:00,
2013-01-14 01:09:00,22.3,14.7,30.43,ENE,61,2.0,3.0,72,0.00,,,0.00,LWC2 V0.39 B123,2013-01-14 08:09:00,
2013-01-14 01:14:00,22.2,14.6,30.43,ENE,58,3.0,5.0,72,0.00,,,0.00,LWC2 V0.39 B123,2013-01-14 08:14:00,
2013-01-14 01:19:00,22.1,14.5,30.43,NE,49,2.0,4.0,72,0.00,,,0.00,LWC2 V0.39 B123,2013-01-14 08:19:00,
2013-01-14 01:24:00,22.1,14.5,30.43,NNE,30,3.0,4.0,72,0.00,,,0.00,LWC2 V0.39 B123,2013-01-14 08:24:00,
2013-01-14 01:29:00,22.1,14.5,30.43,NNE,30,2.0,4.0,72,0.00,,,0.00,LWC2 V0.39 B123,2013-01-14 08:29:00,
2013-01-14 01:34:00,22.0,14.7,30.44,NNE,27,2.0,4.0,73,0.00,,,0.00,LWC2 V0.39 B123,2013-01-14 08:34:00,
2013-01-14 01:39:00,21.8,14.5,30.44,NE,46,2.0,2.0,73,0.00,,,0.00,LWC2 V0.39 B123,2013-01-14 08:39:00,
2013-01-14 01:44:00,21.6,14.0,30.44,NNE,30,3.0,3.0,72,0.00,,,0.00,LWC2 V0.39 B123,2013-01-14 08:44:00,
2013-01-14 01:49:00,21.6,14.0,30.44,NE,51,1.0,5.0,72,0.00,,,0.00,LWC2 V0.39 B123,2013-01-14 08:49:00,
2013-01-14 01:54:00,21.6,14.0,30.44,NE,48,2.0,3.0,72,0.00,,,0.00,LWC2 V0.39 B123,2013-01-14 08:54:00,
2013-01-14 01:59:00,21.6,14.0,30.44,NE,40,2.0,3.0,72,0.00,,,0.00,LWC2 V0.39 B123,2013-01-14 08:59:00,
2013-01-14 02:04:00,21.5,13.9,30.44,NE,48,1.0,2.0,72,0.00,,,0.00,LWC2 V0.39 B123,2013-01-14 09:04:00,
2013-01-14 02:09:00,21.4,13.8,30.44,NNE,30,2.0,5.0,72,0.00,,,0.00,LWC2 V0.39 B123,2013-01-14 09:09:00,
2013-01-14 02:14:00,21.3,13.7,30.45,NNE,30,1.0,4.0,72,0.00,,,0.00,LWC2 V0.39 B123,2013-01-14 09:14:00,
2013-01-14 02:19:00,21.3,13.4,30.44,NE,43,4.0,5.0,71,0.00,,,0.00,LWC2 V0.39 B123,2013-01-14 09:19:00,
2013-01-14 02:24:00,21.3,13.7,30.44,NE,49,4.0,5.0,72,0.00,,,0.00,LWC2 V0.39 B123,2013-01-14 09:24:00,
2013-01-14 02:29:00,21.4,13.5,30.44,NE,34,2.0,4.0,71,0.00,,,0.00,LWC2 V0.39 B123,2013-01-14 09:29:00,
2013-01-14 02:34:00,21.2,13.6,30.44,NNE,13,4.0,4.0,72,0.00,,,0.00,LWC2 V0.39 B123,2013-01-14 09:34:00,
2013-01-14 02:39:00,21.1,13.5,30.43,NE,53,3.0,4.0,72,0.00,,,0.00,LWC2 V0.39 B123,2013-01-14 09:39:00,
2013-01-14 02:44:00,21.0,13.1,30.43,NE,49,4.0,5.0,71,0.00,,,0.00,LWC2 V0.39 B123,2013-01-14 09:44:00,
2013-01-14 02:49:00,20.9,13.0,30.43,ENE,59,2.0,3.0,71,0.00,,,0.00,LWC2 V0.39 B123,2013-01-14 09:49:00,
2013-01-14 02:54:00,20.8,13.2,30.42,NE,54,3.0,5.0,72,0.00,,,0.00,LWC2 V0.39 B123,2013-01-14 09:54:00,
2013-01-14 02:59:00,20.7,13.1,30.42,ENE,61,2.0,4.0,72,0.00,,,0.00,LWC2 V0.39 B123,2013-01-14 09:59:00,
2013-01-14 03:04:00,20.8,13.2,30.43,NE,46,1.0,3.0,72,0.00,,,0.00,LWC2 V0.39 B123,2013-01-14 10:04:00,
2013-01-14 03:09:00,20.7,13.1,30.43,NNE,33,3.0,3.0,72,0.00,,,0.00,LWC2 V0.39 B123,2013-01-14 10:09:00,
2013-01-14 03:14:00,20.8,13.2,30.44,NE,44,2.0,4.0,72,0.00,,,0.00,LWC2 V0.39 B123,2013-01-14 10:14:00,
2013-01-14 03:19:00,20.9,13.3,30.44,NE,37,2.0,2.0,72,0.00,,,0.00,LWC2 V0.39 B123,2013-01-14 10:19:00,
2013-01-14 03:24:00,21.0,13.1,30.44,NE,50,1.0,2.0,71,0.00,,,0.00,LWC2 V0.39 B123,2013-01-14 10:24:00,
2013-01-14 03:29:00,21.1,13.5,30.43,NE,43,2.0,3.0,72,0.00,,,0.00,LWC2 V0.39 B123,2013-01-14 10:29:00,
2013-01-14 03:34:00,21.2,13.6,30.43,NE,40,1.0,2.0,72,0.00,,,0.00,LWC2 V0.39 B123,2013-01-14 10:34:00,
2013-01-14 03:39:00,21.4,13.8,30.43,ENE,58,2.0,3.0,72,0.00,,,0.00,LWC2 V0.39 B123,2013-01-14 10:39:00,
2013-01-14 03:44:00,21.4,14.1,30.45,NNE,19,1.0,2.0,73,0.00,,,0.00,LWC2 V0.39 B123,2013-01-14 10:44:00,
2013-01-14 03:49:00,21.4,14.1,30.45,NE,43,1.0,2.0,73,0.00,,,0.00,LWC2 V0.39 B123,2013-01-14 10:49:00,
2013-01-14 03:54:00,21.4,14.1,30.44,NE,40,2.0,3.0,73,0.00,,,0.00,LWC2 V0.39 B123,2013-01-14 10:54:00,
2013-01-14 03:59:00,21.4,13.8,30.43,NE,42,2.0,3.0,72,0.00,,,0.00,LWC2 V0.39 B123,2013-01-14 10:59:00,
2013-01-14 04:04:00,21.4,13.8,30.43,NNE,13,2.0,5.0,72,0.00,,,0.00,LWC2 V0.39 B123,2013-01-14 11:04:00,
2013-01-14 04:09:00,21.4,13.8,30.45,NE,34,1.0,2.0,72,0.00,,,0.00,LWC2 V0.39 B123,2013-01-14 11:09:00,
2013-01-14 04:14:00,21.2,13.6,30.45,NNE,20,1.0,3.0,72,0.00,,,0.00,LWC2 V0.39 B123,2013-01-14 11:14:00,
2013-01-14 04:19:00,21.1,13.8,30.43,NE,56,1.0,5.0,73,0.00,,,0.00,LWC2 V0.39 B123,2013-01-14 11:19:00,
2013-01-14 04:24:00,21.0,14.0,30.44,NNE,25,0.0,1.0,74,0.00,,,0.00,LWC2 V0.39 B123,2013-01-14 11:24:00,
2013-01-14 04:29:00,21.1,13.8,30.45,ENE,57,1.0,4.0,73,0.00,,,0.00,LWC2 V0.39 B123,2013-01-14 11:29:00,
2013-01-14 04:34:00,21.2,13.6,30.45,ENE,63,3.0,4.0,72,0.00,,,0.00,LWC2 V0.39 B123,2013-01-14 11:34:00,
2013-01-14 04:39:00,21.3,13.7,30.45,ENE,61,2.0,3.0,72,0.00,,,0.00,LWC2 V0.39 B123,2013-01-14 11:39:00,
2013-01-14 04:44:00,21.4,13.5,30.44,NE,53,1.0,4.0,71,0.00,,,0.00,LWC2 V0.39 B123,2013-01-14 11:44:00,
2013-01-14 04:49:00,21.5,13.3,30.44,NNE,26,4.0,5.0,70,0.00,,,0.00,LWC2 V0.39 B123,2013-01-14 11:49:00,
2013-01-14 04:54:00,21.5,13.3,30.44,NE,50,2.0,5.0,70,0.00,,,0.00,LWC2 V0.39 B123,2013-01-14 11:54:00,
2013-01-14 04:59:00,21.5,13.3,30.43,ENE,57,3.0,5.0,70,0.00,,,0.00,LWC2 V0.39 B123,2013-01-14 11:59:00,
2013-01-14 05:04:00,21.5,13.6,30.43,NE,52,1.0,3.0,71,0.00,,,0.00,LWC2 V0.39 B123,2013-01-14 12:04:00,
2013-01-14 05:09:00,21.6,13.7,30.43,NE,49,2.0,2.0,71,0.00,,,0.00,LWC2 V0.39 B123,2013-01-14 12:09:00,
2013-01-14 05:14:00,21.6,13.4,30.44,NE,50,2.0,3.0,70,0.00,,,0.00,LWC2 V0.39 B123,2013-01-14 12:14:00,
2013-01-14 05:19:00,21.6,13.4,30.44,ENE,68,1.0,3.0,70,0.00,,,0.00,LWC2 V0.39 B123,2013-01-14 12:19:00,
2013-01-14 05:24:00,21.6,13.4,30.44,NE,54,0.0,2.0,70,0.00,,,0.00,LWC2 V0.39 B123,2013-01-14 12:24:00,
2013-01-14 05:29:00,21.5,13.3,30.44,NNE,18,1.0,3.0,70,0.00,,,0.00,LWC2 V0.39 B123,2013-01-14 12:29:00,
2013-01-14 05:34:00,21.6,13.4,30.44,NE,51,2.0,4.0,70,0.00,,,0.00,LWC2 V0.39 B123,2013-01-14 12:34:00,
2013-01-14 05:39:00,21.7,13.4,30.45,North,1,3.0,5.0,70,0.00,,,0.00,LWC2 V0.39 B123,2013-01-14 12:39:00,
2013-01-14 05:44:00,21.7,13.4,30.45,NE,46,2.0,3.0,70,0.00,,,0.00,LWC2 V0.39 B123,2013-01-14 12:44:00,
2013-01-14 05:49:00,21.8,13.5,30.45,NE,34,2.0,4.0,70,0.00,,,0.00,LWC2 V0.39 B123,2013-01-14 12:49:00,
2013-01-14 05:54:00,21.8,13.5,30.46,ENE,58,1.0,3.0,70,0.00,,,0.00,LWC2 V0.39 B123,2013-01-14 12:54:00,
2013-01-14 05:59:00,21.7,13.4,30.46,NE,50,1.0,2.0,70,0.00,,,0.00,LWC2 V0.39 B123,2013-01-14 12:59:00,
2013-01-14 06:04:00,21.7,13.8,30.46,NNE,26,2.0,3.0,71,0.00,,,0.00,LWC2 V0.39 B123,2013-01-14 13:04:00,
2013-01-14 06:09:00,21.7,13.4,30.46,NNE,22,2.0,4.0,70,0.00,,,0.00,LWC2 V0.39 B123,2013-01-14 13:09:00,
2013-01-14 06:14:00,21.8,13.9,30.46,ENE,58,2.0,3.0,71,0.00,,,0.00,LWC2 V0.39 B123,2013-01-14 13:14:00,
2013-01-14 06:19:00,21.9,13.6,30.46,NE,49,3.0,6.0,70,0.00,,,0.00,LWC2 V0.39 B123,2013-01-14 13:19:00,
2013-01-14 06:24:00,21.9,13.6,30.47,NE,40,1.0,3.0,70,0.00,,,0.00,LWC2 V0.39 B123,2013-01-14 13:24:00,
2013-01-14 06:29:00,21.9,13.6,30.47,NE,56,1.0,3.0,70,0.00,,,0.00,LWC2 V0.39 B123,2013-01-14 13:29:00,
2013-01-14 06:34:00,21.9,14.0,30.46,NNE,23,2.0,5.0,71,0.00,,,0.00,LWC2 V0.39 B123,2013-01-14 13:34:00,
2013-01-14 06:39:00,21.9,13.6,30.46,NE,40,2.0,4.0,70,0.00,,,0.00,LWC2 V0.39 B123,2013-01-14 13:39:00,
2013-01-14 06:44:00,21.8,13.5,30.46,NE,43,1.0,4.0,70,0.00,,,0.00,LWC2 V0.39 B123,2013-01-14 13:44:00,
2013-01-14 06:49:00,21.7,13.8,30.46,NE,42,5.0,5.0,71,0.00,,,0.00,LWC2 V0.39 B123,2013-01-14 13:49:00,
2013-01-14 06:54:00,21.7,13.8,30.47,NNE,27,3.0,4.0,71,0.00,,,0.00,LWC2 V0.39 B123,2013-01-14 13:54:00,
2013-01-14 06:59:00,21.7,13.8,30.48,NE,40,2.0,6.0,71,0.00,,,0.00,LWC2 V0.39 B123,2013-01-14 13:59:00,
2013-01-14 07:04:00,21.9,14.0,30.48,NE,34,2.0,3.0,71,0.00,,,0.00,LWC2 V0.39 B123,2013-01-14 14:04:00,
2013-01-14 07:09:00,21.9,13.6,30.48,NE,43,3.0,4.0,70,0.00,,,0.00,LWC2 V0.39 B123,2013-01-14 14:09:00,
2013-01-14 07:14:00,22.0,13.7,30.48,NE,44,2.0,3.0,70,0.00,,,0.00,LWC2 V0.39 B123,2013-01-14 14:14:00,
2013-01-14 07:19:00,22.3,13.7,30.48,NE,34,5.0,5.0,69,0.00,,,0.00,LWC2 V0.39 B123,2013-01-14 14:19:00,
2013-01-14 07:24:00,22.5,13.9,30.48,North,7,4.0,4.0,69,0.00,,,0.00,LWC2 V0.39 B123,2013-01-14 14:24:00,
2013-01-14 07:29:00,22.6,14.0,30.48,NE,46,2.0,6.0,69,0.00,,,0.00,LWC2 V0.39 B123,2013-01-14 14:29:00,
2013-01-14 07:34:00,22.7,14.1,30.48,NE,53,5.0,6.0,69,0.00,,,0.00,LWC2 V0.39 B123,2013-01-14 14:34:00,
2013-01-14 07:39:00,22.8,13.8,30.49,NE,46,3.0,4.0,68,0.00,,,0.00,LWC2 V0.39 B123,2013-01-14 14:39:00,
2013-01-14 07:44:00,22.8,14.2,30.49,NE,52,2.0,4.0,69,0.00,,,0.00,LWC2 V0.39 B123,2013-01-14 14:44:00,
2013-01-14 07:49:00,22.9,13.9,30.49,ENE,62,2.0,3.0,68,0.00,,,0.00,LWC2 V0.39 B123,2013-01-14 14:49:00,
2013-01-14 07:54:00,23.1,13.8,30.50,NE,47,2.0,2.0,67,0.00,,,0.00,LWC2 V0.39 B123,2013-01-14 14:54:00,
2013-01-14 07:59:00,23.4,14.1,30.51,NE,52,3.0,3.0,67,0.00,,,0.00,LWC2 V0.39 B123,2013-01-14 14:59:00,
2013-01-14 08:04:00,23.4,13.4,30.51,NE,54,2.0,4.0,65,0.00,,,0.00,LWC2 V0.39 B123,2013-01-14 15:04:00,
2013-01-14 08:09:00,23.5,13.8,30.52,ENE,59,1.0,3.0,66,0.00,,,0.00,LWC2 V0.39 B123,2013-01-14 15:09:00,
2013-01-14 08:14:00,23.8,14.5,30.52,NE,42,1.0,2.0,67,0.00,,,0.00,LWC2 V0.39 B123,2013-01-14 15:14:00,
2013-01-14 08:19:00,24.0,14.7,30.52,ENE,58,2.0,3.0,67,0.00,,,0.00,LWC2 V0.39 B123,2013-01-14 15:19:00,
2013-01-14 08:24:00,24.1,14.8,30.52,East,80,5.0,5.0,67,0.00,,,0.00,LWC2 V0.39 B123,2013-01-14 15:24:00,
2013-01-14 08:29:00,24.3,14.9,30.53,ENE,61,4.0,5.0,67,0.00,,,0.00,LWC2 V0.39 B123,2013-01-14 15:29:00,
2013-01-14 08:34:00,24.6,15.2,30.52,ENE,61,3.0,4.0,67,0.00,,,0.00,LWC2 V0.39 B123,2013-01-14 15:34:00,
2013-01-14 08:39:00,25.1,15.4,30.52,ENE,76,3.0,4.0,66,0.00,,,0.00,LWC2 V0.39 B123,2013-01-14 15:39:00,
2013-01-14 08:44:00,25.3,14.5,30.52,ENE,72,2.0,6.0,63,0.00,,,0.00,LWC2 V0.39 B123,2013-01-14 15:44:00,
2013-01-14 08:49:00,25.4,13.9,30.52,ENE,74,6.0,8.0,61,0.00,,,0.00,LWC2 V0.39 B123,2013-01-14 15:49:00,
2013-01-14 08:54:00,25.8,14.2,30.51,ENE,76,3.0,5.0,61,0.00,,,0.00,LWC2 V0.39 B123,2013-01-14 15:54:00,
2013-01-14 08:59:00,26.3,14.7,30.51,NE,48,2.0,6.0,61,0.00,,,0.00,LWC2 V0.39 B123,2013-01-14 15:59:00,
2013-01-14 09:04:00,26.2,14.2,30.51,NE,51,5.0,8.0,60,0.00,,,0.00,LWC2 V0.39 B123,2013-01-14 16:04:00,
2013-01-14 09:09:00,26.2,13.5,30.50,East,79,6.0,7.0,58,0.00,,,0.00,LWC2 V0.39 B123,2013-01-14 16:09:00,
2013-01-14 09:14:00,26.6,13.0,30.51,East,85,8.0,12.0,56,0.00,,,0.00,LWC2 V0.39 B123,2013-01-14 16:14:00,
2013-01-14 09:19:00,26.9,12.9,30.51,ENE,74,4.0,8.0,55,0.00,,,0.00,LWC2 V0.39 B123,2013-01-14 16:19:00,
2013-01-14 09:24:00,27.5,14.3,30.51,ESE,108,3.0,8.0,57,0.00,,,0.00,LWC2 V0.39 B123,2013-01-14 16:24:00,
2013-01-14 09:29:00,27.6,12.7,30.50,East,91,6.0,10.0,53,0.00,,,0.00,LWC2 V0.39 B123,2013-01-14 16:29:00,
2013-01-14 09:34:00,27.8,12.9,30.50,ESE,117,4.0,8.0,53,0.00,,,0.00,LWC2 V0.39 B123,2013-01-14 16:34:00,
2013-01-14 09:39:00,27.7,12.8,30.50,ENE,60,3.0,10.0,53,0.00,,,0.00,LWC2 V0.39 B123,2013-01-14 16:39:00,
2013-01-14 09:44:00,27.9,12.6,30.49,NE,55,6.0,9.0,52,0.00,,,0.00,LWC2 V0.39 B123,2013-01-14 16:44:00,
2013-01-14 09:49:00,28.3,13.4,30.49,East,82,6.0,7.0,53,0.00,,,0.00,LWC2 V0.39 B123,2013-01-14 16:49:00,
2013-01-14 09:54:00,29.1,14.1,30.49,ENE,75,4.0,7.0,53,0.00,,,0.00,LWC2 V0.39 B123,2013-01-14 16:54:00,
2013-01-14 09:59:00,29.0,12.7,30.48,ESE,110,8.0,11.0,50,0.00,,,0.00,LWC2 V0.39 B123,2013-01-14 16:59:00,
2013-01-14 10:04:00,29.2,15.1,30.49,ENE,76,5.0,8.0,55,0.00,,,0.00,LWC2 V0.39 B123,2013-01-14 17:04:00,
2013-01-14 10:09:00,29.4,13.5,30.49,ENE,77,4.0,10.0,51,0.00,,,0.00,LWC2 V0.39 B123,2013-01-14 17:09:00,
2013-01-14 10:14:00,29.6,13.7,30.49,NE,49,5.0,6.0,51,0.00,,,0.00,LWC2 V0.39 B123,2013-01-14 17:14:00,
2013-01-14 10:19:00,29.7,14.3,30.48,ENE,65,5.0,8.0,52,0.00,,,0.00,LWC2 V0.39 B123,2013-01-14 17:19:00,
2013-01-14 10:24:00,29.9,14.0,30.48,ENE,77,5.0,13.0,51,0.00,,,0.00,LWC2 V0.39 B123,2013-01-14 17:24:00,
2013-01-14 10:29:00,29.9,14.4,30.47,ENE,71,4.0,10.0,52,0.00,,,0.00,LWC2 V0.39 B123,2013-01-14 17:29:00,
2013-01-14 10:34:00,30.0,14.5,30.47,East,81,3.0,7.0,52,0.00,,,0.00,LWC2 V0.39 B123,2013-01-14 17:34:00,
2013-01-14 10:39:00,30.4,14.9,30.46,East,98,7.0,8.0,52,0.00,,,0.00,LWC2 V0.39 B123,2013-01-14 17:39:00,
2013-01-14 10:44:00,30.5,14.6,30.46,ENE,70,7.0,11.0,51,0.00,,,0.00,LWC2 V0.39 B123,2013-01-14 17:44:00,
2013-01-14 10:49:00,30.4,14.0,30.45,East,90,8.0,10.0,50,0.00,,,0.00,LWC2 V0.39 B123,2013-01-14 17:49:00,
2013-01-14 10:54:00,30.6,14.6,30.45,ENE,74,6.0,7.0,51,0.00,,,0.00,LWC2 V0.39 B123,2013-01-14 17:54:00,
2013-01-14 10:59:00,30.9,14.5,30.44,ENE,68,11.0,11.0,50,0.00,,,0.00,LWC2 V0.39 B123,2013-01-14 17:59:00,
2013-01-14 11:04:00,30.9,14.5,30.44,ENE,76,2.0,9.0,50,0.00,,,0.00,LWC2 V0.39 B123,2013-01-14 18:04:00,
2013-01-14 11:09:00,31.2,14.8,30.44,ENE,73,3.0,5.0,50,0.00,,,0.00,LWC2 V0.39 B123,2013-01-14 18:09:00,
2013-01-14 11:14:00,31.2,15.2,30.44,ENE,70,8.0,8.0,51,0.00,,,0.00,LWC2 V0.39 B123,2013-01-14 18:14:00,
2013-01-14 11:19:00,31.1,14.7,30.43,ENE,61,3.0,8.0,50,0.00,,,0.00,LWC2 V0.39 B123,2013-01-14 18:19:00,
2013-01-14 11:24:00,31.3,15.7,30.43,ENE,68,4.0,5.0,52,0.00,,,0.00,LWC2 V0.39 B123,2013-01-14 18:24:00,
2013-01-14 11:29:00,31.8,15.8,30.43,ESE,102,2.0,5.0,51,0.00,,,0.00,LWC2 V0.39 B123,2013-01-14 18:29:00,
2013-01-14 11:34:00,31.6,15.1,30.43,ENE,78,1.0,8.0,50,0.00,,,0.00,LWC2 V0.39 B123,2013-01-14 18:34:00,
2013-01-14 11:39:00,31.9,16.3,30.43,NE,40,3.0,4.0,52,0.00,,,0.00,LWC2 V0.39 B123,2013-01-14 18:39:00,
2013-01-14 11:44:00,32.4,15.9,30.43,NE,42,3.0,7.0,50,0.00,,,0.00,LWC2 V0.39 B123,2013-01-14 18:44:00,
2013-01-14 11:49:00,31.8,14.8,30.42,East,89,3.0,3.0,49,0.00,,,0.00,LWC2 V0.39 B123,2013-01-14 18:49:00,
2013-01-14 11:54:00,32.3,15.8,30.41,NE,38,2.0,2.0,50,0.00,,,0.00,LWC2 V0.39 B123,2013-01-14 18:54:00,
2013-01-14 11:59:00,32.9,16.3,30.41,NE,42,4.0,6.0,50,0.00,,,0.00,LWC2 V0.39 B123,2013-01-14 18:59:00,
2013-01-14 12:04:00,33.0,16.4,30.41,NE,39,5.0,6.0,50,0.00,,,0.00,LWC2 V0.39 B123,2013-01-14 19:04:00,
2013-01-14 12:09:00,33.2,16.1,30.40,East,87,4.0,7.0,49,0.00,,,0.00,LWC2 V0.39 B123,2013-01-14 19:09:00,
2013-01-14 12:14:00,32.9,16.3,30.40,ENE,63,4.0,5.0,50,0.00,,,0.00,LWC2 V0.39 B123,2013-01-14 19:14:00,
2013-01-14 12:19:00,33.4,16.8,30.40,NE,37,7.0,9.0,50,0.00,,,0.00,LWC2 V0.39 B123,2013-01-14 19:19:00,
2013-01-14 12:24:00,33.0,16.9,30.40,NE,47,2.0,5.0,51,0.00,,,0.00,LWC2 V0.39 B123,2013-01-14 19:24:00,
2013-01-14 12:29:00,33.0,16.4,30.39,NE,42,3.0,6.0,50,0.00,,,0.00,LWC2 V0.39 B123,2013-01-14 19:29:00,
2013-01-14 12:34:00,33.8,15.7,30.39,NNE,30,2.0,7.0,47,0.00,,,0.00,LWC2 V0.39 B123,2013-01-14 19:34:00,
2013-01-14 12:39:00,33.6,15.1,30.39,East,86,6.0,12.0,46,0.00,,,0.00,LWC2 V0.39 B123,2013-01-14 19:39:00,
2013-01-14 12:44:00,33.5,15.5,30.39,East,85,2.0,5.0,47,0.00,,,0.00,LWC2 V0.39 B123,2013-01-14 19:44:00,
2013-01-14 12:49:00,33.7,16.1,30.39,NE,44,2.0,5.0,48,0.00,,,0.00,LWC2 V0.39 B123,2013-01-14 19:49:00,
2013-01-14 12:54:00,34.0,15.4,30.39,ENE,68,4.0,6.0,46,0.00,,,0.00,LWC2 V0.39 B123,2013-01-14 19:54:00,
2013-01-14 12:59:00,34.1,15.5,30.39,East,89,4.0,8.0,46,0.00,,,0.00,LWC2 V0.39 B123,2013-01-14 19:59:00,
2013-01-14 13:04:00,33.9,14.8,30.39,East,82,1.0,8.0,45,0.00,,,0.00,LWC2 V0.39 B123,2013-01-14 20:04:00,
2013-01-14 13:09:00,34.3,15.7,30.39,East,82,3.0,9.0,46,0.00,,,0.00,LWC2 V0.39 B123,2013-01-14 20:09:00,
2013-01-14 13:14:00,34.2,15.6,30.38,ESE,121,3.0,6.0,46,0.00,,,0.00,LWC2 V0.39 B123,2013-01-14 20:14:00,
2013-01-14 13:19:00,34.2,16.1,30.38,ENE,64,2.0,8.0,47,0.00,,,0.00,LWC2 V0.39 B123,2013-01-14 20:19:00,
2013-01-14 13:24:00,34.3,16.2,30.38,ESE,105,4.0,9.0,47,0.00,,,0.00,LWC2 V0.39 B123,2013-01-14 20:24:00,
2013-01-14 13:29:00,34.3,15.7,30.38,East,84,3.0,6.0,46,0.00,,,0.00,LWC2 V0.39 B123,2013-01-14 20:29:00,
2013-01-14 13:34:00,34.3,15.7,30.38,ENE,61,4.0,5.0,46,0.00,,,0.00,LWC2 V0.39 B123,2013-01-14 20:34:00,
2013-01-14 13:39:00,34.4,16.3,30.38,ENE,75,4.0,8.0,47,0.00,,,0.00,LWC2 V0.39 B123,2013-01-14 20:39:00,
2013-01-14 13:44:00,34.7,16.1,30.38,East,98,2.0,7.0,46,0.00,,,0.00,LWC2 V0.39 B123,2013-01-14 20:44:00,
2013-01-14 13:49:00,35.1,17.4,30.38,ENE,60,4.0,5.0,48,0.00,,,0.00,LWC2 V0.39 B123,2013-01-14 20:49:00,
2013-01-14 13:54:00,35.1,16.4,30.38,ENE,67,3.0,6.0,46,0.00,,,0.00,LWC2 V0.39 B123,2013-01-14 20:54:00,
2013-01-14 13:59:00,35.2,16.5,30.38,NE,53,2.0,6.0,46,0.00,,,0.00,LWC2 V0.39 B123,2013-01-14 20:59:00,
2013-01-14 14:04:00,35.2,16.0,30.38,NE,43,2.0,6.0,45,0.00,,,0.00,LWC2 V0.39 B123,2013-01-14 21:04:00,
2013-01-14 14:09:00,35.3,16.6,30.38,NE,42,3.0,7.0,46,0.00,,,0.00,LWC2 V0.39 B123,2013-01-14 21:09:00,
2013-01-14 14:14:00,35.0,16.8,30.38,NE,48,4.0,4.0,47,0.00,,,0.00,LWC2 V0.39 B123,2013-01-14 21:14:00,
2013-01-14 14:19:00,35.2,16.5,30.38,NE,44,4.0,5.0,46,0.00,,,0.00,LWC2 V0.39 B123,2013-01-14 21:19:00,
2013-01-14 14:24:00,35.1,16.4,30.38,ENE,77,2.0,4.0,46,0.00,,,0.00,LWC2 V0.39 B123,2013-01-14 21:24:00,
2013-01-14 14:29:00,35.1,16.9,30.38,ESE,114,3.0,6.0,47,0.00,,,0.00,LWC2 V0.39 B123,2013-01-14 21:29:00,
2013-01-14 14:34:00,34.9,15.7,30.37,East,83,2.0,9.0,45,0.00,,,0.00,LWC2 V0.39 B123,2013-01-14 21:34:00,
2013-01-14 14:39:00,34.8,16.6,30.37,NE,51,2.0,10.0,47,0.00,,,0.00,LWC2 V0.39 B123,2013-01-14 21:39:00,
2013-01-14 14:44:00,34.8,16.2,30.37,ENE,58,5.0,7.0,46,0.00,,,0.00,LWC2 V0.39 B123,2013-01-14 21:44:00,
2013-01-14 14:49:00,34.5,15.9,30.37,ENE,78,4.0,8.0,46,0.00,,,0.00,LWC2 V0.39 B123,2013-01-14 21:49:00,
2013-01-14 14:54:00,34.4,16.8,30.38,ENE,67,4.0,7.0,48,0.00,,,0.00,LWC2 V0.39 B123,2013-01-14 21:54:00,
2013-01-14 14:59:00,34.3,16.7,30.38,SE,146,5.0,10.0,48,0.00,,,0.00,LWC2 V0.39 B123,2013-01-14 21:59:00,
2013-01-14 15:04:00,34.3,17.1,30.38,ENE,77,9.0,9.0,49,0.00,,,0.00,LWC2 V0.39 B123,2013-01-14 22:04:00,
2013-01-14 15:09:00,34.1,17.0,30.38,East,96,2.0,6.0,49,0.00,,,0.00,LWC2 V0.39 B123,2013-01-14 22:09:00,
2013-01-14 15:14:00,34.2,17.5,30.37,NE,48,3.0,6.0,50,0.00,,,0.00,LWC2 V0.39 B123,2013-01-14 22:14:00,
2013-01-14 15:19:00,34.2,18.0,30.38,East,81,7.0,7.0,51,0.00,,,0.00,LWC2 V0.39 B123,2013-01-14 22:19:00,
2013-01-14 15:24:00,33.9,17.2,30.38,ENE,63,2.0,6.0,50,0.00,,,0.00,LWC2 V0.39 B123,2013-01-14 22:24:00,
2013-01-14 15:29:00,33.7,17.5,30.38,ENE,68,3.0,8.0,51,0.00,,,0.00,LWC2 V0.39 B123,2013-01-14 22:29:00,
2013-01-14 15:34:00,33.5,17.8,30.37,ENE,66,3.0,10.0,52,0.00,,,0.00,LWC2 V0.39 B123,2013-01-14 22:34:00,
2013-01-14 15:39:00,33.3,18.0,30.37,ENE,58,3.0,10.0,53,0.00,,,0.00,LWC2 V0.39 B123,2013-01-14 22:39:00,
2013-01-14 15:44:00,33.1,18.3,30.37,East,92,4.0,4.0,54,0.00,,,0.00,LWC2 V0.39 B123,2013-01-14 22:44:00,
2013-01-14 15:49:00,32.8,17.6,30.37,ENE,63,3.0,8.0,53,0.00,,,0.00,LWC2 V0.39 B123,2013-01-14 22:49:00,
2013-01-14 15:54:00,32.6,17.8,30.38,East,81,5.0,7.0,54,0.00,,,0.00,LWC2 V0.39 B123,2013-01-14 22:54:00,
2013-01-14 15:59:00,32.3,18.0,30.38,East,80,10.0,10.0,55,0.00,,,0.00,LWC2 V0.39 B123,2013-01-14 22:59:00,
2013-01-14 16:04:00,32.0,18.5,30.38,NE,35,5.0,9.0,57,0.00,,,0.00,LWC2 V0.39 B123,2013-01-14 23:04:00,
2013-01-14 16:09:00,31.7,18.2,30.38,NE,51,5.0,5.0,57,0.00,,,0.00,LWC2 V0.39 B123,2013-01-14 23:09:00,
2013-01-14 16:14:00,31.5,18.4,30.38,ENE,68,2.0,4.0,58,0.00,,,0.00,LWC2 V0.39 B123,2013-01-14 23:14:00,
2013-01-14 16:19:00,31.3,18.3,30.38,ESE,115,5.0,6.0,58,0.00,,,0.00,LWC2 V0.39 B123,2013-01-14 23:19:00,
2013-01-14 16:24:00,31.1,18.1,30.38,ENE,78,3.0,6.0,58,0.00,,,0.00,LWC2 V0.39 B123,2013-01-14 23:24:00,
2013-01-14 16:29:00,30.9,18.3,30.38,East,84,2.0,3.0,59,0.00,,,0.00,LWC2 V0.39 B123,2013-01-14 23:29:00,
2013-01-14 16:34:00,30.7,18.1,30.38,ENE,63,4.0,8.0,59,0.00,,,0.00,LWC2 V0.39 B123,2013-01-14 23:34:00,
2013-01-14 16:39:00,30.5,18.3,30.38,NE,49,2.0,3.0,60,0.00,,,0.00,LWC2 V0.39 B123,2013-01-14 23:39:00,
2013-01-14 16:44:00,30.3,18.5,30.38,ESE,103,5.0,10.0,61,0.00,,,0.00,LWC2 V0.39 B123,2013-01-14 23:44:00,
2013-01-14 16:49:00,30.2,18.4,30.38,East,81,5.0,9.0,61,0.00,,,0.00,LWC2 V0.39 B123,2013-01-14 23:49:00,
2013-01-14 16:54:00,30.1,18.7,30.38,East,86,4.0,5.0,62,0.00,,,0.00,LWC2 V0.39 B123,2013-01-14 23:54:00,
2013-01-14 16:59:00,29.9,18.5,30.38,ENE,67,3.0,9.0,62,0.00,,,0.00,LWC2 V0.39 B123,2013-01-14 23:59:00,
2013-01-14 17:04:00,29.7,18.7,30.38,ENE,75,4.0,6.0,63,0.00,,,0.00,LWC2 V0.39 B123,2013-01-15 00:04:00,
2013-01-14 17:09:00,29.6,18.6,30.38,ENE,73,5.0,6.0,63,0.00,,,0.00,LWC2 V0.39 B123,2013-01-15 00:09:00,
2013-01-14 17:14:00,29.6,18.9,30.38,NE,43,2.0,7.0,64,0.00,,,0.00,LWC2 V0.39 B123,2013-01-15 00:14:00,
2013-01-14 17:19:00,29.5,18.8,30.38,ENE,57,3.0,4.0,64,0.00,,,0.00,LWC2 V0.39 B123,2013-01-15 00:19:00,
2013-01-14 17:24:00,29.4,19.1,30.38,ENE,63,4.0,5.0,65,0.00,,,0.00,LWC2 V0.39 B123,2013-01-15 00:24:00,
2013-01-14 17:29:00,29.2,18.9,30.38,ENE,60,3.0,4.0,65,0.00,,,0.00,LWC2 V0.39 B123,2013-01-15 00:29:00,
2013-01-14 17:34:00,29.1,18.8,30.39,NE,52,4.0,4.0,65,0.00,,,0.00,LWC2 V0.39 B123,2013-01-15 00:34:00,
2013-01-14 17:39:00,29.1,19.2,30.39,NE,55,3.0,4.0,66,0.00,,,0.00,LWC2 V0.39 B123,2013-01-15 00:39:00,
2013-01-14 17:44:00,29.0,19.1,30.39,NE,54,3.0,4.0,66,0.00,,,0.00,LWC2 V0.39 B123,2013-01-15 00:44:00,
2013-01-14 17:49:00,29.0,19.1,30.39,ENE,77,6.0,7.0,66,0.00,,,0.00,LWC2 V0.39 B123,2013-01-15 00:49:00,
2013-01-14 17:54:00,29.0,19.4,30.39,NE,42,3.0,4.0,67,0.00,,,0.00,LWC2 V0.39 B123,2013-01-15 00:54:00,
2013-01-14 17:59:00,29.0,19.4,30.39,ENE,64,4.0,7.0,67,0.00,,,0.00,LWC2 V0.39 B123,2013-01-15 00:59:00,
2013-01-14 18:04:00,28.9,19.3,30.38,ENE,60,1.0,3.0,67,0.00,,,0.00,LWC2 V0.39 B123,2013-01-15 01:04:00,
2013-01-14 18:09:00,28.8,19.6,30.38,ENE,75,3.0,4.0,68,0.00,,,0.00,LWC2 V0.39 B123,2013-01-15 01:09:00,
2013-01-14 18:14:00,28.8,19.9,30.38,ENE,58,1.0,2.0,69,0.00,,,0.00,LWC2 V0.39 B123,2013-01-15 01:14:00,
2013-01-14 18:19:00,28.7,19.8,30.38,ENE,57,2.0,3.0,69,0.00,,,0.00,LWC2 V0.39 B123,2013-01-15 01:19:00,
2013-01-14 18:24:00,28.8,19.6,30.38,East,91,5.0,10.0,68,0.00,,,0.00,LWC2 V0.39 B123,2013-01-15 01:24:00,
2013-01-14 18:29:00,28.8,19.6,30.38,ENE,65,1.0,4.0,68,0.00,,,0.00,LWC2 V0.39 B123,2013-01-15 01:29:00,
2013-01-14 18:34:00,28.6,19.7,30.38,ENE,78,2.0,7.0,69,0.00,,,0.00,LWC2 V0.39 B123,2013-01-15 01:34:00,
2013-01-14 18:39:00,28.6,19.7,30.38,ENE,70,2.0,6.0,69,0.00,,,0.00,LWC2 V0.39 B123,2013-01-15 01:39:00,
2013-01-14 18:44:00,28.6,19.7,30.38,ENE,69,4.0,5.0,69,0.00,,,0.00,LWC2 V0.39 B123,2013-01-15 01:44:00,
2013-01-14 18:49:00,28.6,19.7,30.39,East,81,4.0,4.0,69,0.00,,,0.00,LWC2 V0.39 B123,2013-01-15 01:49:00,
2013-01-14 18:54:00,28.6,19.7,30.38,ENE,74,3.0,5.0,69,0.00,,,0.00,LWC2 V0.39 B123,2013-01-15 01:54:00,
2013-01-14 18:59:00,28.6,20.1,30.39,ESE,107,2.0,3.0,70,0.00,,,0.00,LWC2 V0.39 B123,2013-01-15 01:59:00,
2013-01-14 19:04:00,28.6,20.1,30.39,NE,50,4.0,4.0,70,0.00,,,0.00,LWC2 V0.39 B123,2013-01-15 02:04:00,
2013-01-14 19:09:00,28.5,19.6,30.39,ENE,58,2.0,9.0,69,0.00,,,0.00,LWC2 V0.39 B123,2013-01-15 02:09:00,
2013-01-14 19:14:00,28.4,19.5,30.38,NE,52,5.0,7.0,69,0.00,,,0.00,LWC2 V0.39 B123,2013-01-15 02:14:00,
2013-01-14 19:19:00,28.2,19.4,30.38,ENE,71,4.0,7.0,69,0.00,,,0.00,LWC2 V0.39 B123,2013-01-15 02:19:00,
2013-01-14 19:24:00,28.1,19.3,30.38,ENE,71,2.0,3.0,69,0.00,,,0.00,LWC2 V0.39 B123,2013-01-15 02:24:00,
2013-01-14 19:29:00,27.9,19.1,30.38,ENE,59,1.0,5.0,69,0.00,,,0.00,LWC2 V0.39 B123,2013-01-15 02:29:00,
2013-01-14 19:34:00,27.8,19.0,30.38,ENE,63,2.0,10.0,69,0.00,,,0.00,LWC2 V0.39 B123,2013-01-15 02:34:00,
2013-01-14 19:39:00,27.7,18.9,30.38,ENE,60,2.0,6.0,69,0.00,,,0.00,LWC2 V0.39 B123,2013-01-15 02:39:00,
2013-01-14 19:44:00,27.6,18.4,30.38,ENE,57,4.0,9.0,68,0.00,,,0.00,LWC2 V0.39 B123,2013-01-15 02:44:00,
2013-01-14 19:49:00,27.5,18.7,30.38,ENE,59,2.0,6.0,69,0.00,,,0.00,LWC2 V0.39 B123,2013-01-15 02:49:00,
2013-01-14 19:54:00,27.4,18.9,30.38,East,80,2.0,4.0,70,0.00,,,0.00,LWC2 V0.39 B123,2013-01-15 02:54:00,
2013-01-14 19:59:00,27.3,18.8,30.38,ENE,60,2.0,8.0,70,0.00,,,0.00,LWC2 V0.39 B123,2013-01-15 02:59:00,
2013-01-14 20:04:00,27.1,18.6,30.38,East,81,2.0,5.0,70,0.00,,,0.00,LWC2 V0.39 B123,2013-01-15 03:04:00,
2013-01-14 20:09:00,27.0,18.5,30.38,East,80,1.0,5.0,70,0.00,,,0.00,LWC2 V0.39 B123,2013-01-15 03:09:00,
2013-01-14 20:14:00,26.9,18.1,30.38,ENE,70,4.0,9.0,69,0.00,,,0.00,LWC2 V0.39 B123,2013-01-15 03:14:00,
2013-01-14 20:19:00,26.9,18.1,30.37,NE,51,3.0,4.0,69,0.00,,,0.00,LWC2 V0.39 B123,2013-01-15 03:19:00,
2013-01-14 20:24:00,26.8,18.0,30.38,ENE,60,4.0,9.0,69,0.00,,,0.00,LWC2 V0.39 B123,2013-01-15 03:24:00,
2013-01-14 20:29:00,26.8,18.0,30.38,NE,47,2.0,7.0,69,0.00,,,0.00,LWC2 V0.39 B123,2013-01-15 03:29:00,
2013-01-14 20:34:00,26.6,17.8,30.38,ENE,61,0.0,4.0,69,0.00,,,0.00,LWC2 V0.39 B123,2013-01-15 03:34:00,
2013-01-14 20:39:00,26.5,17.7,30.38,ENE,70,4.0,5.0,69,0.00,,,0.00,LWC2 V0.39 B123,2013-01-15 03:39:00,
2013-01-14 20:44:00,26.5,18.1,30.38,ENE,60,1.0,5.0,70,0.00,,,0.00,LWC2 V0.39 B123,2013-01-15 03:44:00,
2013-01-14 20:49:00,26.5,17.7,30.38,ENE,74,5.0,6.0,69,0.00,,,0.00,LWC2 V0.39 B123,2013-01-15 03:49:00,
2013-01-14 20:54:00,26.5,17.7,30.38,ENE,71,5.0,8.0,69,0.00,,,0.00,LWC2 V0.39 B123,2013-01-15 03:54:00,
2013-01-14 20:59:00,26.5,17.7,30.38,East,84,2.0,5.0,69,0.00,,,0.00,LWC2 V0.39 B123,2013-01-15 03:59:00,
2013-01-14 21:04:00,26.4,17.6,30.38,East,96,6.0,7.0,69,0.00,,,0.00,LWC2 V0.39 B123,2013-01-15 04:04:00,
2013-01-14 21:09:00,26.4,17.3,30.38,East,79,2.0,6.0,68,0.00,,,0.00,LWC2 V0.39 B123,2013-01-15 04:09:00,
2013-01-14 21:14:00,26.3,17.5,30.38,ENE,78,3.0,6.0,69,0.00,,,0.00,LWC2 V0.39 B123,2013-01-15 04:14:00,
2013-01-14 21:19:00,26.2,17.8,30.38,ENE,76,4.0,6.0,70,0.00,,,0.00,LWC2 V0.39 B123,2013-01-15 04:19:00,
2013-01-14 21:24:00,26.1,17.7,30.38,ENE,70,3.0,11.0,70,0.00,,,0.00,LWC2 V0.39 B123,2013-01-15 04:24:00,
2013-01-14 21:29:00,25.9,17.5,30.38,East,79,4.0,8.0,70,0.00,,,0.00,LWC2 V0.39 B123,2013-01-15 04:29:00,
2013-01-14 21:34:00,25.8,17.7,30.38,ENE,57,2.0,5.0,71,0.00,,,0.00,LWC2 V0.39 B123,2013-01-15 04:34:00,
2013-01-14 21:39:00,25.7,17.6,30.38,ENE,68,2.0,6.0,71,0.00,,,0.00,LWC2 V0.39 B123,2013-01-15 04:39:00,
2013-01-14 21:44:00,25.7,17.9,30.38,NE,46,2.0,10.0,72,0.00,,,0.00,LWC2 V0.39 B123,2013-01-15 04:44:00,
2013-01-14 21:49:00,25.6,17.8,30.38,ENE,61,3.0,9.0,72,0.00,,,0.00,LWC2 V0.39 B123,2013-01-15 04:49:00,
2013-01-14 21:54:00,25.5,18.1,30.38,ENE,75,4.0,8.0,73,0.00,,,0.00,LWC2 V0.39 B123,2013-01-15 04:54:00,
2013-01-14 21:59:00,25.4,18.0,30.37,NE,50,2.0,5.0,73,0.00,,,0.00,LWC2 V0.39 B123,2013-01-15 04:59:00,
2013-01-14 22:00:00,25.3,17.9,30.37,ENE,65,2.0,4.0,73,0.00,,,0.00,LWC2 V0.39 B123,2013-01-15 05:00:00,
2013-01-14 22:01:00,25.3,17.9,30.37,ENE,74,6.0,9.0,73,0.00,,,0.00,LWC2 V0.39 B123,2013-01-15 05:01:00,
2013-01-14 22:03:00,25.3,17.9,30.37,NE,48,3.0,8.0,73,0.00,,,0.00,LWC2 V0.39 B123,2013-01-15 05:03:00,
2013-01-14 22:08:00,25.2,17.8,30.37,ENE,68,5.0,6.0,73,0.00,,,0.00,LWC2 V0.39 B123,2013-01-15 05:08:00,
2013-01-14 22:13:00,25.1,18.0,30.37,East,79,4.0,4.0,74,0.00,,,0.00,LWC2 V0.39 B123,2013-01-15 05:13:00,
2013-01-14 22:14:00,25.1,18.0,30.37,ENE,78,3.0,6.0,74,0.00,,,0.00,LWC2 V0.39 B123,2013-01-15 05:14:00,
2013-01-14 22:19:00,25.1,18.0,30.37,ENE,72,4.0,8.0,74,0.00,,,0.00,LWC2 V0.39 B123,2013-01-15 05:19:00,
2013-01-14 22:24:00,25.0,17.9,30.37,East,96,5.0,6.0,74,0.00,,,0.00,LWC2 V0.39 B123,2013-01-15 05:24:00,
2013-01-14 22:29:00,25.0,18.2,30.37,East,88,3.0,7.0,75,0.00,,,0.00,LWC2 V0.39 B123,2013-01-15 05:29:00,
2013-01-14 22:34:00,24.9,18.1,30.37,ENE,68,3.0,7.0,75,0.00,,,0.00,LWC2 V0.39 B123,2013-01-15 05:34:00,
2013-01-14 22:39:00,24.9,18.4,30.37,East,86,1.0,6.0,76,0.00,,,0.00,LWC2 V0.39 B123,2013-01-15 05:39:00,
2013-01-14 22:44:00,24.8,18.3,30.37,East,95,4.0,4.0,76,0.00,,,0.00,LWC2 V0.39 B123,2013-01-15 05:44:00,
2013-01-14 22:49:00,24.8,18.3,30.37,East,99,8.0,8.0,76,0.00,,,0.00,LWC2 V0.39 B123,2013-01-15 05:49:00,
2013-01-14 22:54:00,24.8,18.3,30.38,ENE,70,4.0,5.0,76,0.00,,,0.00,LWC2 V0.39 B123,2013-01-15 05:54:00,
2013-01-14 22:59:00,24.8,18.3,30.38,ENE,61,3.0,7.0,76,0.00,,,0.00,LWC2 V0.39 B123,2013-01-15 05:59:00,
2013-01-14 23:04:00,24.9,18.4,30.38,ENE,67,1.0,5.0,76,0.00,,,0.00,LWC2 V0.39 B123,2013-01-15 06:04:00,
2013-01-14 23:09:00,24.8,18.6,30.38,ENE,58,2.0,5.0,77,0.00,,,0.00,LWC2 V0.39 B123,2013-01-15 06:09:00,
2013-01-14 23:14:00,24.8,18.6,30.38,ENE,58,3.0,7.0,77,0.00,,,0.00,LWC2 V0.39 B123,2013-01-15 06:14:00,
2013-01-14 23:19:00,24.7,18.5,30.38,ENE,76,2.0,6.0,77,0.00,,,0.00,LWC2 V0.39 B123,2013-01-15 06:19:00,
2013-01-14 23:24:00,24.6,18.7,30.38,ENE,63,1.0,4.0,78,0.00,,,0.00,LWC2 V0.39 B123,2013-01-15 06:24:00,
2013-01-14 23:29:00,24.4,18.5,30.38,ENE,74,2.0,5.0,78,0.00,,,0.00,LWC2 V0.39 B123,2013-01-15 06:29:00,
2013-01-14 23:34:00,24.4,18.5,30.38,ENE,75,4.0,4.0,78,0.00,,,0.00,LWC2 V0.39 B123,2013-01-15 06:34:00,
2013-01-14 23:39:00,24.4,18.8,30.38,ENE,71,6.0,9.0,79,0.00,,,0.00,LWC2 V0.39 B123,2013-01-15 06:39:00,
2013-01-14 23:44:00,24.4,18.8,30.38,ENE,58,2.0,4.0,79,0.00,,,0.00,LWC2 V0.39 B123,2013-01-15 06:44:00,
2013-01-14 23:49:00,24.3,18.7,30.38,ENE,70,4.0,6.0,79,0.00,,,0.00,LWC2 V0.39 B123,2013-01-15 06:49:00,
2013-01-14 23:54:00,24.3,18.7,30.37,ENE,63,3.0,3.0,79,0.00,,,0.00,LWC2 V0.39 B123,2013-01-15 06:54:00,
2013-01-14 23:59:00,24.2,18.9,30.37,NE,52,2.0,3.0,80,0.00,,,0.00,LWC2 V0.39 B123,2013-01-15 06:59:00,